Weather History for KLEE - December, 2013

Change the Weather History Date:

Friday, December 13, 2013

  Actual Average Record
Temperature  
Mean Temperature 60 °F -  
Max Temperature 75 °F 72 °F 82 °F (1961)
Min Temperature 46 °F 49 °F 16 °F (1962)
Degree Days  
Heating Degree Days 4    
Growing Degree Days 10 (Base 50)    
Moisture  
Dew Point 49 °F    
Average Humidity 68    
Maximum Humidity 90    
Minimum Humidity 40    
Precipitation  
Precipitation 0.00 in - - ()
Sea Level Pressure  
Sea Level Pressure 30.23 in    
Wind  
Wind Speed 7 mph (NE)    
Max Wind Speed 13 mph    
Max Gust Speed -    
Visibility 10 miles    
Events      
Averages and records for this station are not official NWS values.
T = Trace of Precipitation, MM = Missing Value Source: NWS Daily Summary

Daily Weather History Graph

Daily Weather History Graph

Search for Another Location

Airport or City:

Trip Planner

Search our weather history database for the weather conditions in past years. The results will help you decide how hot, cold, wet, or windy it might be!

Date:

Astronomy

Dec. 13, 2013 Rise Set
Actual Time 7:11 AM EST 5:31 PM EST
Civil Twilight 6:45 AM EST 5:57 PM EST
Nautical Twilight 6:16 AM EST 6:26 PM EST
Astronomical Twilight 5:47 AM EST 6:55 PM EST
Moon 3:03 PM EST (12/13) 3:45 AM EST (12/13)
Length of Visible Light 11h 11m
Length of Day
10h 19m
Waxing Gibbous, 88% of the Moon is Illuminated
Dec 13
Waxing Gibbous
Dec 17
Full
Dec 25
Last Quarter
Jan 1
New
Jan 7
First Quarter

Hourly Weather History & Observations

Time (EST) Temp. Dew Point Humidity Pressure Visibility Wind Dir Wind Speed Gust Speed Precip Events Conditions
12:53 AM 48.0 °F 41.0 °F 77% 30.29 in 10.0 mi North 5.8 mph - N/A   Clear
1:53 AM 48.9 °F 42.1 °F 77% 30.28 in 10.0 mi North 8.1 mph - N/A   Clear
2:53 AM 48.0 °F 42.1 °F 80% 30.27 in 10.0 mi North 8.1 mph - N/A   Clear
3:53 AM 48.0 °F 42.1 °F 80% 30.26 in 10.0 mi North 8.1 mph - N/A   Clear
4:53 AM 48.0 °F 44.1 °F 86% 30.24 in 10.0 mi North 8.1 mph - N/A   Clear
5:53 AM 46.9 °F 44.1 °F 90% 30.25 in 10.0 mi Calm Calm - N/A   Clear
6:53 AM 46.9 °F 44.1 °F 90% 30.27 in 10.0 mi NNW 3.5 mph - N/A   Clear
7:53 AM 48.9 °F 45.0 °F 86% 30.29 in 10.0 mi North 5.8 mph - N/A   Partly Cloudy
8:53 AM 54.0 °F 46.9 °F 77% 30.30 in 10.0 mi North 6.9 mph - N/A   Clear
9:53 AM 60.1 °F 50.0 °F 69% 30.32 in 10.0 mi North 4.6 mph - N/A   Clear
10:53 AM 68.0 °F 52.0 °F 56% 30.31 in 10.0 mi ENE 8.1 mph - N/A   Partly Cloudy
11:53 AM 72.0 °F 52.0 °F 49% 30.28 in 10.0 mi ENE 12.7 mph - N/A   Clear
12:53 PM 72.0 °F 51.1 °F 48% 30.25 in 10.0 mi East 8.1 mph - N/A   Partly Cloudy
1:53 PM 73.9 °F 48.9 °F 41% 30.21 in 10.0 mi East 6.9 mph - N/A   Clear
2:53 PM 75.9 °F 50.0 °F 40% 30.19 in 10.0 mi East 9.2 mph - N/A   Partly Cloudy
3:53 PM 73.0 °F 48.9 °F 42% 30.17 in 10.0 mi East 11.5 mph - N/A   Clear
4:53 PM 70.0 °F 51.1 °F 51% 30.18 in 10.0 mi East 8.1 mph - N/A   Clear
5:53 PM 66.9 °F 52.0 °F 59% 30.19 in 10.0 mi East 5.8 mph - N/A   Clear
6:53 PM 64.9 °F 53.1 °F 65% 30.18 in 10.0 mi East 5.8 mph - N/A   Clear
7:53 PM 63.0 °F 54.0 °F 72% 30.18 in 10.0 mi East 6.9 mph - N/A   Clear
8:53 PM 63.0 °F 54.0 °F 72% 30.19 in 10.0 mi ENE 3.5 mph - N/A   Clear
9:53 PM 62.1 °F 55.0 °F 78% 30.17 in 10.0 mi East 4.6 mph - N/A   Clear
10:53 PM 63.0 °F 55.9 °F 78% 30.16 in 10.0 mi ESE 5.8 mph - N/A   Mostly Cloudy
11:53 PM 64.0 °F 55.9 °F 75% 30.16 in 10.0 mi ESE 8.1 mph - N/A   Partly Cloudy